Snowfall_Accumulation
0.0 0.0 0.0 0.0 0.0 0.0 0.0 0.0 0.0 0.0 0.0 0.0 0.0 0.0 0.0 0.0 0.0 0.0 0.0 0.0 0.0 0.0
0.0 0.0 0.0 0.0 0.0 0.0 0.0 0.0 0.0 0.0 0.0 0.0 0.0 0.0 0.0 0.0 0.0 0.0 0.0 0.0 0.0 0.0
0.0 0.0 0.0 0.0 0.0 0.0 0.0 0.0 0.0 0.0 0.0 0.0 0.0 0.0 0.0 0.0 0.0 0.0 0.0 0.0 0.0 0.0
0.0 0.0 0.0 0.0 0.0 0.0 0.0 0.0 0.0 0.1 0.1 0.0 0.0 0.0 0.0 0.0 0.0 0.0 0.0 0.0 0.0 0.0
0.0 0.0 0.6 0.0 0.0 0.0 0.1 0.0 0.1 0.1 0.1 0.2 0.6 0.3 0.3 0.2 0.1 0.2 0.1 0.1 0.0 0.0
0.0 0.3 0.7 1.1 1.4 0.9 1.2 0.3 0.6 0.7 1.2 1.1 0.5 1.1 1.5 1.1 0.0 0.5 0.6 0.5 0.4 0.0
0.2 0.2 0.6 1.4 1.9 2.0 2.8 1.3 0.6 0.8 1.3 0.9 1.6 3.8 2.0 2.3 1.9 1.4 1.7 1.7 1.5 1.1
0.0 0.1 0.3 0.8 1.7 2.7 2.9 1.2 1.2 1.8 2.0 2.5 2.7 3.4 4.6 5.1 5.2 3.2 4.7 4.5 2.4 2.0
0.0 0.0 0.2 0.2 0.3 0.8 2.7 1.2 1.3 0.9 0.8 1.5 2.6 3.5 4.3 5.6 5.9 5.6 2.9 3.4 4.2 2.8
0.0 0.0 0.0 0.0 0.0 0.1 0.1 0.5 2.0 2.1 1.7 0.7 0.9 2.0 2.0 2.6 4.6 5.8 5.3 4.3 3.1 3.1
0.0 0.0 0.0 0.0 0.0 0.0 0.0 0.0 0.0 0.2 0.7 0.0 0.8 0.7 0.4 0.5 0.5 1.7 4.3 4.6 3.6 2.7
0.0 0.0 0.0 0.0 0.0 0.0 0.0 0.0 0.0 0.0 0.0 0.0 0.0 0.2 0.1 0.0 0.0 0.4 0.5 1.3 2.9 3.0
0.0 0.0 0.0 0.0 0.0 0.0 0.0 0.0 0.0 0.0 0.0 0.0 0.0 0.0 0.2 0.0 0.1 0.1 0.0 0.1 0.3 1.4
0.0 0.0 0.0 0.0 0.0 0.0 0.0 0.0 0.0 0.0 0.0 0.0 0.0 0.0 0.2 0.2 0.2 0.3 0.1 0.0 0.1 0.1